Lake Charles, LA

3:41 AM CDT on October 01, 2016 (GMT -0500)
Lake Charles Regional

Weather History for KLCH - March, 2014

Change the Weather History Date:

Sunday, March 23, 2014

  Actual Average Record
Temperature  
Mean Temperature 61 °F 63 °F  
Max Temperature 70 °F 73 °F 89 °F (1910)
Min Temperature 51 °F 53 °F 25 °F (1915)
Degree Days  
Heating Degree Days 4 4  
Month to date heating degree days 207 135  
Since 1 July heating degree days 1858 1417  
Cooling Degree Days 0 2  
Month to date cooling degree days 7 33  
Year to date cooling degree days 22 56  
Growing Degree Days 12 (Base 50)    
Moisture  
Dew Point 58 °F    
Average Humidity 80    
Maximum Humidity 100    
Minimum Humidity 60    
Precipitation  
Precipitation 0.24 in 0.12 in 3.43 in (1973)
Month to date precipitation 1.80 2.71  
Year to date precipitation 8.59 11.40  
Snow  
Snow 0.00 in 0.00 in 0.00 in ()
Month to date snowfall 0.0 0.0  
Since 1 July snowfall 0.1 0.1  
Snow Depth 0.00 in    
Sea Level Pressure  
Sea Level Pressure 30.10 in    
Wind  
Wind Speed 10 mph (North)    
Max Wind Speed 29 mph    
Max Gust Speed 39 mph    
Visibility 5 miles    
Events Fog , Rain , Thunderstorm    
T = Trace of Precipitation, MM = Missing Value Source: NWS Daily Summary

Daily Weather History Graph

Daily Weather History Graph

Search for Another Location

Airport or City:

Trip Planner

Search our weather history database for the weather conditions in past years. The results will help you decide how hot, cold, wet, or windy it might be!

Date:

Astronomy

Mar. 23, 2014 Rise Set
Actual Time 7:13 AM CDT 7:26 PM CDT
Civil Twilight 6:49 AM CDT 7:50 PM CDT
Nautical Twilight 6:21 AM CDT 8:18 PM CDT
Astronomical Twilight 5:53 AM CDT 8:46 PM CDT
Moon 1:23 AM CDT (3/23) 12:15 PM CDT (3/23)
Length of Visible Light 13h 01m
Length of Day
12h 13m
Waning Gibbous, 54% of the Moon is Illuminated
Mar 23
Waning Gibbous
Mar 23
Last Quarter
Mar 30
New
Apr 7
First Quarter
Apr 15
Full

Hourly Weather History & Observations

Time (CDT) Temp. Dew Point Humidity Pressure Visibility Wind Dir Wind Speed Gust Speed Precip Events Conditions
12:45 AM 66.9 °F 66.0 °F 97% 29.99 in 1.0 mi South 6.9 mph - N/A   Mist
12:53 AM 66.9 °F 66.0 °F 97% 30.01 in 0.8 mi South 5.8 mph - N/A   Mist
1:04 AM 66.9 °F 66.9 °F 100% 30.00 in 1.0 mi South 4.6 mph - N/A   Mist
1:25 AM 66.9 °F 66.0 °F 97% 29.99 in 2.5 mi South 5.8 mph - N/A   Overcast
1:36 AM 66.9 °F 66.0 °F 97% 30.00 in 3.0 mi South 4.6 mph - N/A   Overcast
1:45 AM 66.9 °F 66.0 °F 97% 30.00 in 2.0 mi SSW 4.6 mph - N/A   Overcast
1:53 AM 66.9 °F 66.0 °F 97% 30.03 in 0.8 mi SW 3.5 mph - N/A   Overcast
2:03 AM 66.9 °F 66.0 °F 97% 30.01 in 1.8 mi SW 4.6 mph - N/A   Overcast
2:21 AM 66.9 °F 66.0 °F 97% 30.00 in 0.5 mi SSW 5.8 mph - N/A Fog Fog
2:37 AM 66.0 °F 66.0 °F 100% 30.01 in 0.2 mi SW 5.8 mph - N/A Fog Fog
2:53 AM 66.0 °F 66.0 °F 100% 30.03 in 0.2 mi WSW 3.5 mph - N/A Fog Fog
3:53 AM 66.0 °F 66.0 °F 100% 30.01 in 0.2 mi SW 3.5 mph - N/A Fog Fog
4:53 AM 66.0 °F 66.0 °F 100% 30.03 in 0.2 mi SW 5.8 mph - N/A Fog Fog
5:53 AM 66.0 °F 66.0 °F 100% 30.04 in 0.5 mi WSW 5.8 mph - N/A Fog Fog
6:53 AM 66.0 °F 66.0 °F 100% 30.06 in 0.5 mi West 3.5 mph - N/A Fog Fog
7:53 AM 66.9 °F 66.0 °F 97% 30.08 in 0.8 mi West 4.6 mph - N/A   Overcast
8:18 AM 66.9 °F 66.0 °F 97% 30.06 in 1.5 mi West 3.5 mph - N/A   Overcast
8:45 AM 68.0 °F 66.9 °F 96% 30.06 in 2.0 mi West 4.6 mph - N/A   Overcast
8:53 AM 68.0 °F 66.9 °F 96% 30.09 in 2.5 mi WNW 5.8 mph - N/A   Overcast
9:07 AM 68.0 °F 66.9 °F 96% 30.07 in 3.0 mi NW 5.8 mph - N/A   Overcast
9:26 AM 68.0 °F 66.9 °F 96% 30.07 in 4.0 mi NW 4.6 mph - N/A   Overcast
9:53 AM 69.1 °F 66.9 °F 93% 30.10 in 4.0 mi WNW 3.5 mph - N/A   Overcast
10:15 AM 62.1 °F 59.0 °F 90% 30.11 in 3.0 mi NNE 20.7 mph 39.1 mph 0.00 in Rain Light Rain
10:28 AM 60.1 °F 57.9 °F 93% 30.13 in 3.0 mi North 18.4 mph - 0.00 in Rain Light Rain
10:40 AM 59.0 °F 57.0 °F 93% 30.13 in 2.5 mi NE 19.6 mph - 0.01 in Rain Rain
10:53 AM 57.9 °F 55.9 °F 93% 30.16 in 4.0 mi NE 16.1 mph - 0.02 in Rain Light Rain
11:48 AM 57.2 °F 53.6 °F 88% 30.16 in 7.0 mi NNE 17.3 mph - 0.00 in   Overcast
11:53 AM 57.0 °F 53.1 °F 87% 30.18 in 7.0 mi NNE 16.1 mph - 0.00 in   Overcast
12:53 PM 57.0 °F 51.1 °F 81% 30.18 in 9.0 mi NNE 20.7 mph - N/A   Overcast
1:44 PM 59.0 °F 50.0 °F 72% 30.13 in 10.0 mi NNE 17.3 mph 28.8 mph N/A   Overcast
1:53 PM 59.0 °F 50.0 °F 72% 30.16 in 10.0 mi NNE 24.2 mph 28.8 mph N/A   Overcast
2:06 PM 60.1 °F 50.0 °F 69% 30.12 in 10.0 mi NE 19.6 mph 24.2 mph N/A   Mostly Cloudy
2:53 PM 62.1 °F 50.0 °F 65% 30.12 in 10.0 mi NNE 20.7 mph - N/A   Unknown
3:53 PM 62.1 °F 48.9 °F 62% 30.12 in 10.0 mi NNE 15.0 mph - N/A   Clear
4:53 PM 63.0 °F 48.9 °F 60% 30.11 in 10.0 mi NNE 12.7 mph - N/A   Mostly Cloudy
5:53 PM 62.1 °F 50.0 °F 65% 30.12 in 10.0 mi NE 13.8 mph - 0.00 in   Overcast
6:45 PM 62.1 °F 48.9 °F 62% 30.14 in 10.0 mi NE 8.1 mph - N/A Thunderstorm Overcast
6:53 PM 62.1 °F 48.9 °F 62% 30.19 in 10.0 mi Variable 4.6 mph - N/A Thunderstorm Overcast
7:00 PM 61.0 °F 48.9 °F 64% 30.14 in 10.0 mi NNE 15.0 mph - 0.00 in Rain Light Rain
7:43 PM 57.0 °F 51.1 °F 81% 30.15 in 4.0 mi NNE 12.7 mph - 0.07 in Rain , Thunderstorm Heavy Thunderstorms and Rain
7:53 PM 57.0 °F 52.0 °F 83% 30.17 in 5.0 mi NNE 11.5 mph - 0.10 in Rain , Thunderstorm Light Thunderstorms and Rain
8:00 PM 55.9 °F 51.1 °F 84% 30.15 in 9.0 mi NE 12.7 mph - 0.00 in Rain Light Rain
8:28 PM 55.0 °F 50.0 °F 83% 30.16 in 7.0 mi NE 10.4 mph - 0.02 in Rain , Thunderstorm Thunderstorms and Rain
8:46 PM 54.0 °F 50.0 °F 86% 30.18 in 5.0 mi NNE 10.4 mph - 0.05 in Rain Rain
8:53 PM 54.0 °F 50.0 °F 86% 30.19 in 6.0 mi NE 10.4 mph - 0.06 in Rain Light Rain
9:53 PM 53.1 °F 50.0 °F 89% 30.22 in 8.0 mi North 8.1 mph - 0.00 in Rain Light Rain
10:53 PM 53.1 °F 48.0 °F 83% 30.20 in 10.0 mi NNE 10.4 mph - 0.01 in   Overcast
11:53 PM 52.0 °F 46.9 °F 83% 30.19 in 10.0 mi NE 9.2 mph - 0.04 in   Mostly Cloudy